owner,sensor,date,latitude,longitude,vertical_datum,direction_of_sea_water_velocity,sea_water_speed,upward_sea_water_velocity,qcFlag 
TABS,ioos:station:wmo:42051:1,2002-01-23T19:30:00Z,29.6350,-93.6417,2.0,258.5314128,42.60050939,-99999.0,'11111222,11111222,99999999' 
TABS,ioos:station:wmo:42051:1,2002-01-23T20:00:00Z,29.6350,-93.6417,2.0,267.6844423,44.80657318,-99999.0,'11111222,11111222,99999999' 
TABS,ioos:station:wmo:42051:1,2002-01-23T20:30:00Z,29.6350,-93.6417,2.0,266.8369717,49.84591658,-99999.0,'11111222,11111222,99999999' 
TABS,ioos:station:wmo:42051:1,2002-01-23T21:00:00Z,29.6350,-93.6417,2.0,264.8960372,51.37366835,-99999.0,'11111222,11111222,99999999' 
TABS,ioos:station:wmo:42051:1,2002-01-23T21:30:00Z,29.6350,-93.6417,2.0,263.1280844,45.134201,-99999.0,'11111222,11111222,99999999' 
TABS,ioos:station:wmo:42051:1,2002-01-23T22:00:00Z,29.6350,-93.6417,2.0,263.4017483,45.43088487,-99999.0,'11111222,11111222,99999999' 
TABS,ioos:station:wmo:42051:1,2002-01-23T22:30:00Z,29.6350,-93.6417,2.0,261.3248515,42.69845079,-99999.0,'11111222,11111222,99999999' 
TABS,ioos:station:wmo:42051:1,2002-01-23T23:00:00Z,29.6350,-93.6417,2.0,264.1797411,41.22247567,-99999.0,'11111222,11111222,99999999' 
TABS,ioos:station:wmo:42051:1,2002-01-23T23:30:00Z,29.6350,-93.6417,2.0,267.1440334,41.75184307,-99999.0,'11111222,11111222,99999999' 
TABS,ioos:station:wmo:42051:1,2002-01-24T00:00:00Z,29.6350,-93.6417,2.0,261.1095752,39.66652241,-99999.0,'11111222,11111222,99999999' 
TABS,ioos:station:wmo:42051:1,2002-01-24T00:30:00Z,29.6350,-93.6417,2.0,267.3951365,41.37273619,-99999.0,'11111222,11111222,99999999' 
TABS,ioos:station:wmo:42051:1,2002-01-24T01:00:00Z,29.6350,-93.6417,2.0,264.6357677,40.11565904,-99999.0,'11111222,11111222,99999999' 
TABS,ioos:station:wmo:42051:1,2002-01-24T01:30:00Z,29.6350,-93.6417,2.0,266.3311367,44.23062853,-99999.0,'11111222,11111222,99999999' 
TABS,ioos:station:wmo:42051:1,2002-01-24T02:00:00Z,29.6350,-93.6417,2.0,266.7835163,43.84905928,-99999.0,'11111222,11111222,99999999' 
TABS,ioos:station:wmo:42051:1,2002-01-24T02:30:00Z,29.6350,-93.6417,2.0,264.887033,41.18384756,-99999.0,'11111222,11111222,99999999' 
TABS,ioos:station:wmo:42051:1,2002-01-24T03:00:00Z,29.6350,-93.6417,2.0,261.8517064,40.99381051,-99999.0,'11111222,11111222,99999999' 
TABS,ioos:station:wmo:42051:1,2002-01-24T03:30:00Z,29.6350,-93.6417,2.0,257.6326194,42.62917428,-99999.0,'11111222,11111222,99999999' 
TABS,ioos:station:wmo:42051:1,2002-01-24T04:00:00Z,29.6350,-93.6417,2.0,264.204061,42.28614194,-99999.0,'11111222,11111222,99999999' 
TABS,ioos:station:wmo:42051:1,2002-01-24T04:30:00Z,29.6350,-93.6417,2.0,257.0808222,36.81178208,-99999.0,'11111222,11111222,99999999' 
TABS,ioos:station:wmo:42051:1,2002-01-24T05:00:00Z,29.6350,-93.6417,2.0,260.6360689,37.18546221,-99999.0,'11111222,11111222,99999999' 
TABS,ioos:station:wmo:42051:1,2002-01-24T05:30:00Z,29.6350,-93.6417,2.0,257.2355232,35.39467192,-99999.0,'11111222,11111222,99999999' 
TABS,ioos:station:wmo:42051:1,2002-01-24T06:00:00Z,29.6350,-93.6417,2.0,250.7923657,33.31445932,-99999.0,'11111222,11111222,99999999' 
TABS,ioos:station:wmo:42051:1,2002-01-24T06:30:00Z,29.6350,-93.6417,2.0,255.421069,35.87505122,-99999.0,'11111222,11111222,99999999' 
TABS,ioos:station:wmo:42051:1,2002-01-24T07:00:00Z,29.6350,-93.6417,2.0,249.695975,32.6805462,-99999.0,'11111222,11111222,99999999' 
TABS,ioos:station:wmo:42051:1,2002-01-24T07:30:00Z,29.6350,-93.6417,2.0,247.6237244,36.85494946,-99999.0,'11111222,11111222,99999999' 
TABS,ioos:station:wmo:42051:1,2002-01-24T08:00:00Z,29.6350,-93.6417,2.0,246.689536,35.75874858,-99999.0,'11111222,11111222,99999999' 
TABS,ioos:station:wmo:42051:1,2002-01-24T08:30:00Z,29.6350,-93.6417,2.0,247.2608834,34.84853655,-99999.0,'11111222,11111222,99999999' 
TABS,ioos:station:wmo:42051:1,2002-01-24T09:00:00Z,29.6350,-93.6417,2.0,249.2599688,32.87000456,-99999.0,'11111222,11111222,99999999' 
TABS,ioos:station:wmo:42051:1,2002-01-24T09:30:00Z,29.6350,-93.6417,2.0,247.7955499,35.93479233,-99999.0,'11111222,11111222,99999999' 
TABS,ioos:station:wmo:42051:1,2002-01-24T10:00:00Z,29.6350,-93.6417,2.0,249.8735977,36.64778574,-99999.0,'11111222,11111222,99999999' 
TABS,ioos:station:wmo:42051:1,2002-01-24T10:30:00Z,29.6350,-93.6417,2.0,249.6507441,37.87359238,-99999.0,'11111222,11111222,99999999' 
TABS,ioos:station:wmo:42051:1,2002-01-24T11:00:00Z,29.6350,-93.6417,2.0,253.1849168,39.92706976,-99999.0,'11111222,11111222,99999999' 
TABS,ioos:station:wmo:42051:1,2002-01-24T11:30:00Z,29.6350,-93.6417,2.0,256.7576641,46.01342956,-99999.0,'11111222,11111222,99999999' 
TABS,ioos:station:wmo:42051:1,2002-01-24T12:00:00Z,29.6350,-93.6417,2.0,253.9928779,47.4704645,-99999.0,'11111222,11111222,99999999' 
TABS,ioos:station:wmo:42051:1,2002-01-24T12:30:00Z,29.6350,-93.6417,2.0,246.2257506,44.72522554,-99999.0,'11111222,11111222,99999999' 
TABS,ioos:station:wmo:42051:1,2002-01-24T13:00:00Z,29.6350,-93.6417,2.0,252.1848294,52.29764909,-99999.0,'11111222,11111222,99999999' 
TABS,ioos:station:wmo:42051:1,2002-01-24T13:30:00Z,29.6350,-93.6417,2.0,248.9801026,59.46704129,-99999.0,'11111222,11111222,99999999' 
TABS,ioos:station:wmo:42051:1,2002-01-24T14:00:00Z,29.6350,-93.6417,2.0,254.8995072,53.16569759,-99999.0,'11111222,11111222,99999999' 
TABS,ioos:station:wmo:42051:1,2002-01-24T14:30:00Z,29.6350,-93.6417,2.0,258.5714724,63.69277275,-99999.0,'11111222,11111222,99999999' 
TABS,ioos:station:wmo:42051:1,2002-01-24T15:00:00Z,29.6350,-93.6417,2.0,259.9398862,65.43599774,-99999.0,'11111222,11111222,99999999' 
TABS,ioos:station:wmo:42051:1,2002-01-24T15:30:00Z,29.6350,-93.6417,2.0,258.8903309,66.63871022,-99999.0,'11111222,11111222,99999999' 
TABS,ioos:station:wmo:42051:1,2002-01-24T16:00:00Z,29.6350,-93.6417,2.0,261.9735693,66.17823283,-99999.0,'11111222,11111222,99999999' 
TABS,ioos:station:wmo:42051:1,2002-01-24T16:30:00Z,29.6350,-93.6417,2.0,262.067668,61.7406908,-99999.0,'11111222,11111222,99999999' 
TABS,ioos:station:wmo:42051:1,2002-01-24T17:00:00Z,29.6350,-93.6417,2.0,262.1240703,60.79339849,-99999.0,'11111222,11111222,99999999' 
TABS,ioos:station:wmo:42051:1,2002-01-24T17:30:00Z,29.6350,-93.6417,2.0,259.2790572,65.58470553,-99999.0,'11111222,11111222,99999999' 
TABS,ioos:station:wmo:42051:1,2002-01-24T18:00:00Z,29.6350,-93.6417,2.0,259.7749505,63.26468604,-99999.0,'11111222,11111222,99999999' 
TABS,ioos:station:wmo:42051:1,2002-01-24T18:30:00Z,29.6350,-93.6417,2.0,252.8507298,59.31713496,-99999.0,'11111222,11111222,99999999' 
TABS,ioos:station:wmo:42051:1,2002-01-24T19:00:00Z,29.6350,-93.6417,2.0,248.093041,54.62423272,-99999.0,'11111222,11111222,99999999' 
TABS,ioos:station:wmo:42051:1,2002-01-24T19:30:00Z,29.6350,-93.6417,2.0,243.798938,55.5584683,-99999.0,'11111222,11111222,99999999' 
TABS,ioos:station:wmo:42051:1,2002-01-24T20:00:00Z,29.6350,-93.6417,2.0,245.5819342,54.18667364,-99999.0,'11111222,11111222,99999999' 
TABS,ioos:station:wmo:42051:1,2002-01-24T20:30:00Z,29.6350,-93.6417,2.0,243.9251065,53.2829804,-99999.0,'11111222,11111222,99999999' 
TABS,ioos:station:wmo:42051:1,2002-01-24T21:00:00Z,29.6350,-93.6417,2.0,243.8049168,48.43424408,-99999.0,'11111222,11111222,99999999' 
TABS,ioos:station:wmo:42051:1,2002-01-24T21:30:00Z,29.6350,-93.6417,2.0,243.2992581,51.1211287,-99999.0,'11111222,11111222,99999999' 
TABS,ioos:station:wmo:42051:1,2002-01-24T22:00:00Z,29.6350,-93.6417,2.0,240.6376899,44.54186794,-99999.0,'11111222,11111222,99999999' 
TABS,ioos:station:wmo:42051:1,2002-01-24T22:30:00Z,29.6350,-93.6417,2.0,234.9489045,45.55095718,-99999.0,'11111222,11111222,99999999' 
TABS,ioos:station:wmo:42051:1,2002-01-24T23:00:00Z,29.6350,-93.6417,2.0,231.2660267,49.68828534,-99999.0,'11111222,11111222,99999999' 
TABS,ioos:station:wmo:42051:1,2002-01-24T23:30:00Z,29.6350,-93.6417,2.0,231.7295709,60.1579629,-99999.0,'11111222,11111222,99999999' 
TABS,ioos:station:wmo:42051:1,2002-01-25T00:00:00Z,29.6350,-93.6417,2.0,235.5370749,68.09009106,-99999.0,'11111222,11111222,99999999' 
TABS,ioos:station:wmo:42051:1,2002-01-25T00:30:00Z,29.6350,-93.6417,2.0,236.4655729,76.40746168,-99999.0,'11111222,11111222,99999999' 
TABS,ioos:station:wmo:42051:1,2002-01-25T01:00:00Z,29.6350,-93.6417,2.0,238.535509,73.05089322,-99999.0,'11111222,11111222,99999999' 
TABS,ioos:station:wmo:42051:1,2002-01-25T01:30:00Z,29.6350,-93.6417,2.0,238.2888078,79.18076787,-99999.0,'11111222,11111222,99999999' 
TABS,ioos:station:wmo:42051:1,2002-01-25T02:00:00Z,29.6350,-93.6417,2.0,241.4041881,82.29872235,-99999.0,'11111222,11111222,99999999' 
TABS,ioos:station:wmo:42051:1,2002-01-25T02:30:00Z,29.6350,-93.6417,2.0,246.8504139,80.76267764,-99999.0,'11111222,11111222,99999999' 
TABS,ioos:station:wmo:42051:1,2002-01-25T03:00:00Z,29.6350,-93.6417,2.0,247.4958118,77.85862123,-99999.0,'11111222,11111222,99999999' 
TABS,ioos:station:wmo:42051:1,2002-01-25T03:30:00Z,29.6350,-93.6417,2.0,249.0780701,74.85518886,-99999.0,'11111222,11111222,99999999' 
TABS,ioos:station:wmo:42051:1,2002-01-25T04:00:00Z,29.6350,-93.6417,2.0,248.323111,76.67193033,-99999.0,'11111222,11111222,99999999' 
TABS,ioos:station:wmo:42051:1,2002-01-25T04:30:00Z,29.6350,-93.6417,2.0,249.9908524,74.37953079,-99999.0,'11111222,11111222,99999999' 
TABS,ioos:station:wmo:42051:1,2002-01-25T05:00:00Z,29.6350,-93.6417,2.0,250.7810619,73.76070024,-99999.0,'11111222,11111222,99999999' 
TABS,ioos:station:wmo:42051:1,2002-01-25T05:30:00Z,29.6350,-93.6417,2.0,250.1597655,66.294944,-99999.0,'11111222,11111222,99999999' 
TABS,ioos:station:wmo:42051:1,2002-01-25T06:00:00Z,29.6350,-93.6417,2.0,247.8213107,70.57132633,-99999.0,'11111222,11111222,99999999' 
TABS,ioos:station:wmo:42051:1,2002-01-25T06:30:00Z,29.6350,-93.6417,2.0,245.5301822,72.52393881,-99999.0,'11111222,11111222,99999999' 
TABS,ioos:station:wmo:42051:1,2002-01-25T07:00:00Z,29.6350,-93.6417,2.0,244.3897293,71.09447939,-99999.0,'11111222,11111222,99999999' 
TABS,ioos:station:wmo:42051:1,2002-01-25T07:30:00Z,29.6350,-93.6417,2.0,249.581258,69.16566562,-99999.0,'11111222,11111222,99999999' 
TABS,ioos:station:wmo:42051:1,2002-01-25T08:00:00Z,29.6350,-93.6417,2.0,248.4887581,73.60686449,-99999.0,'11111222,11111222,99999999' 
TABS,ioos:station:wmo:42051:1,2002-01-25T08:30:00Z,29.6350,-93.6417,2.0,248.2036297,59.00840788,-99999.0,'11111222,11111222,99999999' 
TABS,ioos:station:wmo:42051:1,2002-01-25T09:00:00Z,29.6350,-93.6417,2.0,249.7572567,54.94344911,-99999.0,'11111222,11111222,99999999' 
TABS,ioos:station:wmo:42051:1,2002-01-25T09:30:00Z,29.6350,-93.6417,2.0,246.2315993,62.2278788,-99999.0,'11111222,11111222,99999999' 
TABS,ioos:station:wmo:42051:1,2002-01-25T10:00:00Z,29.6350,-93.6417,2.0,253.7159333,44.90120377,-99999.0,'11111222,11111222,99999999' 
TABS,ioos:station:wmo:42051:1,2002-01-25T10:30:00Z,29.6350,-93.6417,2.0,247.4095563,44.38539061,-99999.0,'11111222,11111222,99999999' 
TABS,ioos:station:wmo:42051:1,2002-01-25T11:00:00Z,29.6350,-93.6417,2.0,244.2952698,34.23806361,-99999.0,'11111222,11111222,99999999' 
TABS,ioos:station:wmo:42051:1,2002-01-25T11:30:00Z,29.6350,-93.6417,2.0,244.3499234,45.07146547,-99999.0,'11111222,11111222,99999999' 
TABS,ioos:station:wmo:42051:1,2002-01-25T12:00:00Z,29.6350,-93.6417,2.0,246.6365495,33.38742428,-99999.0,'11111222,11111222,99999999' 
TABS,ioos:station:wmo:42051:1,2002-01-25T12:30:00Z,29.6350,-93.6417,2.0,244.3348074,37.28879993,-99999.0,'11111222,11111222,99999999' 
TABS,ioos:station:wmo:42051:1,2002-01-25T13:00:00Z,29.6350,-93.6417,2.0,247.9362187,51.16702845,-99999.0,'11111222,11111222,99999999' 
TABS,ioos:station:wmo:42051:1,2002-01-25T13:30:00Z,29.6350,-93.6417,2.0,245.8294877,47.62512467,-99999.0,'11111222,11111222,99999999' 
TABS,ioos:station:wmo:42051:1,2002-01-25T14:00:00Z,29.6350,-93.6417,2.0,250.10702,50.84374199,-99999.0,'11111222,11111222,99999999' 
TABS,ioos:station:wmo:42051:1,2002-01-25T14:30:00Z,29.6350,-93.6417,2.0,252.7549345,40.95084492,-99999.0,'11111222,11111222,99999999' 
TABS,ioos:station:wmo:42051:1,2002-01-25T15:30:00Z,29.6350,-93.6417,2.0,252.1842116,39.18923577,-99999.0,'11111222,11111222,99999999' 
TABS,ioos:station:wmo:42051:1,2002-01-25T16:00:00Z,29.6350,-93.6417,2.0,258.7960351,40.14504204,-99999.0,'11111222,11111222,99999999' 
TABS,ioos:station:wmo:42051:1,2002-01-25T16:30:00Z,29.6350,-93.6417,2.0,256.5352661,45.43888753,-99999.0,'11111222,11111222,99999999' 
TABS,ioos:station:wmo:42051:1,2002-01-25T17:00:00Z,29.6350,-93.6417,2.0,254.7888843,41.88742651,-99999.0,'11111222,11111222,99999999' 
TABS,ioos:station:wmo:42051:1,2002-01-25T17:30:00Z,29.6350,-93.6417,2.0,257.2883888,48.03732403,-99999.0,'11111222,11111222,99999999' 
TABS,ioos:station:wmo:42051:1,2002-01-25T18:30:00Z,29.6350,-93.6417,2.0,258.7175881,48.30340982,-99999.0,'11111222,11111222,99999999' 
TABS,ioos:station:wmo:42051:1,2002-01-25T19:00:00Z,29.6350,-93.6417,2.0,258.9063944,43.03407139,-99999.0,'11111222,11111222,99999999' 
TABS,ioos:station:wmo:42051:1,2002-01-25T19:30:00Z,29.6350,-93.6417,2.0,258.6917815,53.29455976,-99999.0,'11111222,11111222,99999999' 
TABS,ioos:station:wmo:42051:1,2002-01-25T20:00:00Z,29.6350,-93.6417,2.0,261.408516,57.30295978,-99999.0,'11111222,11111222,99999999' 
TABS,ioos:station:wmo:42051:1,2002-01-25T20:30:00Z,29.6350,-93.6417,2.0,260.2393376,56.27453421,-99999.0,'11111222,11111222,99999999' 
TABS,ioos:station:wmo:42051:1,2002-01-25T21:00:00Z,29.6350,-93.6417,2.0,261.032718,57.03707303,-99999.0,'11111222,11111222,99999999' 
TABS,ioos:station:wmo:42051:1,2002-01-25T21:30:00Z,29.6350,-93.6417,2.0,260.0707095,53.29827483,-99999.0,'11111222,11111222,99999999' 
TABS,ioos:station:wmo:42051:1,2002-01-25T22:00:00Z,29.6350,-93.6417,2.0,259.2836688,54.10350451,-99999.0,'11111222,11111222,99999999' 
TABS,ioos:station:wmo:42051:1,2002-01-25T22:30:00Z,29.6350,-93.6417,2.0,261.3618729,48.20677546,-99999.0,'11111222,11111222,99999999' 
TABS,ioos:station:wmo:42051:1,2002-01-25T23:00:00Z,29.6350,-93.6417,2.0,258.4456843,53.4225196,-99999.0,'11111222,11111222,99999999' 
TABS,ioos:station:wmo:42051:1,2002-01-25T23:30:00Z,29.6350,-93.6417,2.0,260.7739288,46.96754731,-99999.0,'11111222,11111222,99999999' 
TABS,ioos:station:wmo:42051:1,2002-01-26T00:00:00Z,29.6350,-93.6417,2.0,260.8542023,48.4458347,-99999.0,'11111222,11111222,99999999' 
TABS,ioos:station:wmo:42051:1,2002-01-26T00:30:00Z,29.6350,-93.6417,2.0,266.7672187,44.16025589,-99999.0,'11111222,11111222,99999999' 
TABS,ioos:station:wmo:42051:1,2002-01-26T01:00:00Z,29.6350,-93.6417,2.0,267.3715058,40.7828947,-99999.0,'11111222,11111222,99999999' 
TABS,ioos:station:wmo:42051:1,2002-01-26T01:30:00Z,29.6350,-93.6417,2.0,269.580009,36.8709886,-99999.0,'11111222,11111222,99999999' 
TABS,ioos:station:wmo:42051:1,2002-01-26T02:00:00Z,29.6350,-93.6417,2.0,268.2604329,35.25624058,-99999.0,'11111222,11111222,99999999' 
TABS,ioos:station:wmo:42051:1,2002-01-26T02:30:00Z,29.6350,-93.6417,2.0,265.3397449,39.88182669,-99999.0,'11111222,11111222,99999999' 
TABS,ioos:station:wmo:42051:1,2002-01-26T03:00:00Z,29.6350,-93.6417,2.0,268.1468805,39.90085839,-99999.0,'11111222,11111222,99999999' 
TABS,ioos:station:wmo:42051:1,2002-01-26T03:30:00Z,29.6350,-93.6417,2.0,278.1507763,35.97335264,-99999.0,'11111222,11111222,99999999' 
TABS,ioos:station:wmo:42051:1,2002-01-26T04:00:00Z,29.6350,-93.6417,2.0,270.8204214,37.03379268,-99999.0,'11111222,11111222,99999999' 
TABS,ioos:station:wmo:42051:1,2002-01-26T04:30:00Z,29.6350,-93.6417,2.0,268.1471433,42.07198712,-99999.0,'11111222,11111222,99999999' 
TABS,ioos:station:wmo:42051:1,2002-01-26T05:00:00Z,29.6350,-93.6417,2.0,273.5954222,40.18908434,-99999.0,'11111222,11111222,99999999' 
TABS,ioos:station:wmo:42051:1,2002-01-26T05:30:00Z,29.6350,-93.6417,2.0,265.6843104,43.1924461,-99999.0,'11111222,11111222,99999999' 
TABS,ioos:station:wmo:42051:1,2002-01-26T06:00:00Z,29.6350,-93.6417,2.0,275.1852986,38.06575495,-99999.0,'11111222,11111222,99999999' 
TABS,ioos:station:wmo:42051:1,2002-01-26T06:30:00Z,29.6350,-93.6417,2.0,272.3139625,32.94685569,-99999.0,'11111222,11111222,99999999' 
TABS,ioos:station:wmo:42051:1,2002-01-26T07:00:00Z,29.6350,-93.6417,2.0,268.9501197,30.57512878,-99999.0,'11111222,11111222,99999999' 
TABS,ioos:station:wmo:42051:1,2002-01-26T07:30:00Z,29.6350,-93.6417,2.0,268.720134,27.76692277,-99999.0,'11111222,11111222,99999999' 
TABS,ioos:station:wmo:42051:1,2002-01-26T08:00:00Z,29.6350,-93.6417,2.0,261.717963,25.13207711,-99999.0,'11111222,11111222,99999999' 
TABS,ioos:station:wmo:42051:1,2002-01-26T08:30:00Z,29.6350,-93.6417,2.0,247.1492838,28.30099822,-99999.0,'11111222,11111222,99999999' 
TABS,ioos:station:wmo:42051:1,2002-01-26T09:00:00Z,29.6350,-93.6417,2.0,259.8466221,32.73257246,-99999.0,'11111222,11111222,99999999' 
TABS,ioos:station:wmo:42051:1,2002-01-26T09:30:00Z,29.6350,-93.6417,2.0,251.515206,29.30167572,-99999.0,'11111222,11111222,99999999' 
TABS,ioos:station:wmo:42051:1,2002-01-26T10:00:00Z,29.6350,-93.6417,2.0,252.0532543,27.81324325,-99999.0,'11111222,11111222,99999999' 
TABS,ioos:station:wmo:42051:1,2002-01-26T10:30:00Z,29.6350,-93.6417,2.0,253.5697839,26.48131605,-99999.0,'11111222,11111222,99999999' 
TABS,ioos:station:wmo:42051:1,2002-01-26T11:00:00Z,29.6350,-93.6417,2.0,248.6437516,26.74650818,-99999.0,'11111222,11111222,99999999' 
TABS,ioos:station:wmo:42051:1,2002-01-26T11:30:00Z,29.6350,-93.6417,2.0,247.5454,26.07703204,-99999.0,'11111222,11111222,99999999' 
TABS,ioos:station:wmo:42051:1,2002-01-26T12:00:00Z,29.6350,-93.6417,2.0,248.1457957,22.3243029,-99999.0,'11111222,11111222,99999999' 
TABS,ioos:station:wmo:42051:1,2002-01-26T12:30:00Z,29.6350,-93.6417,2.0,251.7122304,20.87426406,-99999.0,'11111222,11111222,99999999' 
TABS,ioos:station:wmo:42051:1,2002-01-26T13:00:00Z,29.6350,-93.6417,2.0,247.887491,18.48995673,-99999.0,'11111222,11111222,99999999' 
TABS,ioos:station:wmo:42051:1,2002-01-26T13:30:00Z,29.6350,-93.6417,2.0,257.7508066,22.86040463,-99999.0,'11111222,11111222,99999999' 
TABS,ioos:station:wmo:42051:1,2002-01-26T14:00:00Z,29.6350,-93.6417,2.0,257.878592,22.85962598,-99999.0,'11111222,11111222,99999999' 
TABS,ioos:station:wmo:42051:1,2002-01-26T14:30:00Z,29.6350,-93.6417,2.0,255.1399015,30.88282532,-99999.0,'11111222,11111222,99999999' 
TABS,ioos:station:wmo:42051:1,2002-01-26T15:00:00Z,29.6350,-93.6417,2.0,257.4748237,30.89523588,-99999.0,'11111222,11111222,99999999' 
TABS,ioos:station:wmo:42051:1,2002-01-26T15:30:00Z,29.6350,-93.6417,2.0,262.2983391,29.4758647,-99999.0,'11111222,11111222,99999999' 
TABS,ioos:station:wmo:42051:1,2002-01-26T16:00:00Z,29.6350,-93.6417,2.0,262.7304627,35.01139529,-99999.0,'11111222,11111222,99999999' 
TABS,ioos:station:wmo:42051:1,2002-01-26T16:30:00Z,29.6350,-93.6417,2.0,266.9039914,30.1840438,-99999.0,'11111222,11111222,99999999' 
TABS,ioos:station:wmo:42051:1,2002-01-26T17:00:00Z,29.6350,-93.6417,2.0,266.902434,29.98379562,-99999.0,'11111222,11111222,99999999' 
TABS,ioos:station:wmo:42051:1,2002-01-26T17:30:00Z,29.6350,-93.6417,2.0,267.2455242,31.4262979,-99999.0,'11111222,11111222,99999999' 
TABS,ioos:station:wmo:42051:1,2002-01-26T18:30:00Z,29.6350,-93.6417,2.0,260.2810141,30.50782523,-99999.0,'11111222,11111222,99999999' 
TABS,ioos:station:wmo:42051:1,2002-01-26T19:00:00Z,29.6350,-93.6417,2.0,264.1853814,33.56265931,-99999.0,'11111222,11111222,99999999' 
TABS,ioos:station:wmo:42051:1,2002-01-26T19:30:00Z,29.6350,-93.6417,2.0,267.5553967,29.07645267,-99999.0,'11111222,11111222,99999999' 
TABS,ioos:station:wmo:42051:1,2002-01-26T20:00:00Z,29.6350,-93.6417,2.0,272.1444129,25.92815072,-99999.0,'11111222,11111222,99999999' 
TABS,ioos:station:wmo:42051:1,2002-01-26T20:30:00Z,29.6350,-93.6417,2.0,264.5030083,30.90209054,-99999.0,'11111222,11111222,99999999' 
TABS,ioos:station:wmo:42051:1,2002-01-26T21:00:00Z,29.6350,-93.6417,2.0,263.9928288,26.75690752,-99999.0,'11111222,11111222,99999999' 
TABS,ioos:station:wmo:42051:1,2002-01-26T21:30:00Z,29.6350,-93.6417,2.0,271.6992727,24.96097154,-99999.0,'11111222,11111222,99999999' 
TABS,ioos:station:wmo:42051:1,2002-01-26T22:00:00Z,29.6350,-93.6417,2.0,271.5258683,18.4065233,-99999.0,'11111222,11111222,99999999' 
TABS,ioos:station:wmo:42051:1,2002-01-26T22:30:00Z,29.6350,-93.6417,2.0,271.1041138,16.61308219,-99999.0,'11111222,11111222,99999999' 
TABS,ioos:station:wmo:42051:1,2002-01-26T23:00:00Z,29.6350,-93.6417,2.0,272.1601821,16.45168684,-99999.0,'11111222,11111222,99999999' 
TABS,ioos:station:wmo:42051:1,2002-01-26T23:30:00Z,29.6350,-93.6417,2.0,264.4093926,14.67981608,-99999.0,'11111222,11111222,99999999' 
TABS,ioos:station:wmo:42051:1,2002-01-27T00:00:00Z,29.6350,-93.6417,2.0,261.9941511,12.35035627,-99999.0,'11111222,11111222,99999999' 
TABS,ioos:station:wmo:42051:1,2002-01-27T00:30:00Z,29.6350,-93.6417,2.0,271.6126952,12.79506546,-99999.0,'11111222,11111222,99999999' 
TABS,ioos:station:wmo:42051:1,2002-01-27T01:00:00Z,29.6350,-93.6417,2.0,269.9537792,12.510004,-99999.0,'11111222,11111222,99999999' 
TABS,ioos:station:wmo:42051:1,2002-01-27T01:30:00Z,29.6350,-93.6417,2.0,280.4721442,9.518534551,-99999.0,'11133222,11111222,99999999' 
TABS,ioos:station:wmo:42051:1,2002-01-27T02:00:00Z,29.6350,-93.6417,2.0,291.2483047,11.5340756,-99999.0,'11111222,11111222,99999999' 
TABS,ioos:station:wmo:42051:1,2002-01-27T02:30:00Z,29.6350,-93.6417,2.0,291.6702734,12.94485612,-99999.0,'11111222,11111222,99999999' 
TABS,ioos:station:wmo:42051:1,2002-01-27T03:00:00Z,29.6350,-93.6417,2.0,308.5706377,11.99728303,-99999.0,'11111222,11111222,99999999' 
TABS,ioos:station:wmo:42051:1,2002-01-27T03:30:00Z,29.6350,-93.6417,2.0,305.776415,11.73413823,-99999.0,'11111222,11111222,99999999' 
TABS,ioos:station:wmo:42051:1,2002-01-27T04:00:00Z,29.6350,-93.6417,2.0,297.6767631,7.147817849,-99999.0,'11133222,11111222,99999999' 
TABS,ioos:station:wmo:42051:1,2002-01-27T04:30:00Z,29.6350,-93.6417,2.0,311.4732155,7.700837617,-99999.0,'11133222,11111222,99999999' 
TABS,ioos:station:wmo:42051:1,2002-01-27T05:00:00Z,29.6350,-93.6417,2.0,301.814179,11.09717982,-99999.0,'11111222,11111222,99999999' 
TABS,ioos:station:wmo:42051:1,2002-01-27T05:30:00Z,29.6350,-93.6417,2.0,293.9874892,9.445766247,-99999.0,'11133222,11111222,99999999' 
TABS,ioos:station:wmo:42051:1,2002-01-27T06:00:00Z,29.6350,-93.6417,2.0,277.8712497,7.813609921,-99999.0,'11133222,11111222,99999999' 
TABS,ioos:station:wmo:42051:1,2002-01-27T06:30:00Z,29.6350,-93.6417,2.0,277.9424822,9.480938772,-99999.0,'11133222,11111222,99999999' 
TABS,ioos:station:wmo:42051:1,2002-01-27T07:00:00Z,29.6350,-93.6417,2.0,273.8911109,7.958341536,-99999.0,'11133222,11111222,99999999' 
TABS,ioos:station:wmo:42051:1,2002-01-27T07:30:00Z,29.6350,-93.6417,2.0,262.8745794,8.223502903,-99999.0,'11133222,11111222,99999999' 
TABS,ioos:station:wmo:42051:1,2002-01-27T08:00:00Z,29.6350,-93.6417,2.0,248.7779905,10.27690615,-99999.0,'11111222,11111222,99999999' 
TABS,ioos:station:wmo:42051:1,2002-01-27T08:30:00Z,29.6350,-93.6417,2.0,251.8971395,8.174625374,-99999.0,'11133222,11111222,99999999' 
TABS,ioos:station:wmo:42051:1,2002-01-27T09:00:00Z,29.6350,-93.6417,2.0,234.9236757,8.944383713,-99999.0,'11133222,11111222,99999999' 
TABS,ioos:station:wmo:42051:1,2002-01-27T09:30:00Z,29.6350,-93.6417,2.0,228.2031878,3.796024236,-99999.0,'11133222,11111222,99999999' 
TABS,ioos:station:wmo:42051:1,2002-01-27T10:00:00Z,29.6350,-93.6417,2.0,250.5009507,5.961920831,-99999.0,'11133222,11111222,99999999' 
TABS,ioos:station:wmo:42051:1,2002-01-27T10:30:00Z,29.6350,-93.6417,2.0,232.1473574,6.648977365,-99999.0,'11133222,11111222,99999999' 
TABS,ioos:station:wmo:42051:1,2002-01-27T11:00:00Z,29.6350,-93.6417,2.0,248.9621173,6.964194139,-99999.0,'11133222,11111222,99999999' 
TABS,ioos:station:wmo:42051:1,2002-01-27T11:30:00Z,29.6350,-93.6417,2.0,227.5066491,8.082895521,-99999.0,'11133222,11111222,99999999' 
TABS,ioos:station:wmo:42051:1,2002-01-27T12:00:00Z,29.6350,-93.6417,2.0,251.7344149,11.74158848,-99999.0,'11111222,11111222,99999999' 
TABS,ioos:station:wmo:42051:1,2002-01-27T12:30:00Z,29.6350,-93.6417,2.0,248.0012969,11.34605218,-99999.0,'11111222,11111222,99999999' 
TABS,ioos:station:wmo:42051:1,2002-01-27T13:00:00Z,29.6350,-93.6417,2.0,256.9500539,15.63373916,-99999.0,'11111222,11111222,99999999' 